Theta_e
306 306 306 307 307 308 308 308 308 308 309 309 309 307 303 302 304 301 303 303 305 303 302 303 301 301 303 305 305 306 307 307 307 307 308 304 302 302 302 301 300 301 301 302 303
306 306 306 307 308 308 308 308 308 308 308 309 309 306 304 304 306 301 302 303 303 301 302 302 302 302 304 304 304 306 307 305 303 302 301 301 301 301 301 301 302 302 304 304 305
305 306 306 307 308 308 308 308 308 308 308 307 305 304 304 305 305 302 299 302 301 301 303 302 303 303 304 305 304 305 305 303 302 302 301 301 301 303 303 302 302 303 303 304 304
301 302 303 305 307 307 308 307 306 305 303 304 303 302 304 308 305 301 299 300 301 302 304 304 304 304 305 305 305 305 303 302 303 303 302 303 303 303 303 303 303 303 303 303 303
301 302 302 303 302 304 306 303 300 300 300 301 302 300 303 302 301 299 299 300 301 302 303 304 304 305 306 305 305 305 305 305 305 304 304 304 303 303 303 302 303 303 303 303 303
302 301 302 302 302 300 296 300 300 300 300 299 298 300 302 302 301 299 299 300 301 303 303 303 304 303 305 305 305 304 305 305 305 304 304 303 303 302 303 303 303 303 303 302 302
302 301 301 302 301 298 296 300 298 300 298 299 299 301 301 301 300 298 300 300 301 302 303 302 303 305 305 306 304 304 305 305 306 305 304 302 303 303 302 304 303 303 303 302 301
303 302 302 302 300 296 296 299 297 297 299 296 300 303 301 298 298 299 299 301 301 302 302 302 303 305 304 304 305 305 305 306 306 305 304 302 303 303 303 302 302 302 302 301 299
307 303 302 302 301 298 296 299 297 296 297 295 299 299 299 297 298 298 299 300 301 302 302 301 304 304 307 307 310 308 304 305 305 305 305 304 302 302 303 302 301 301 299 299 298
311 309 305 303 302 300 299 298 298 299 298 296 297 301 298 298 298 298 300 300 302 303 305 305 305 309 306 306 305 303 304 305 305 305 305 303 302 302 302 301 301 299 299 299 298
313 312 310 305 303 302 301 301 303 303 298 298 297 298 298 298 297 301 301 301 303 305 308 303 312 307 303 303 303 303 304 305 306 304 303 303 302 302 302 300 300 299 298 297 296
315 314 314 309 304 302 300 301 298 297 300 296 296 297 297 297 300 301 301 304 301 305 306 309 312 303 302 303 303 304 305 305 304 303 302 302 302 302 302 300 300 299 296 296 296
316 315 314 311 307 301 297 297 296 298 302 297 296 297 297 298 300 301 301 302 300 302 302 306 305 302 302 303 303 304 304 301 302 302 302 302 302 303 302 301 299 298 296 296 295
316 315 314 313 305 300 299 296 296 297 306 305 297 297 299 299 301 299 300 301 304 302 303 306 302 302 303 303 302 301 303 302 302 297 299 302 300 302 302 302 300 297 295 295 293
316 315 314 311 303 300 298 296 297 300 316 300 297 295 298 300 300 301 299 301 303 303 301 306 302 303 303 303 301 302 301 301 302 297 298 302 298 302 300 301 297 296 296 294 292
315 313 312 306 302 297 296 297 300 315 317 299 296 297 300 300 301 300 302 300 300 300 302 303 300 299 302 300 301 302 301 302 301 298 302 297 296 299 301 299 296 296 295 294 292
313 312 310 307 302 298 297 300 315 318 301 307 300 297 298 300 301 300 302 304 304 303 306 304 303 299 298 302 302 300 298 299 298 301 300 293 298 299 299 297 296 295 294 292 291
312 311 306 304 299 297 300 307 319 315 309 296 296 297 300 298 301 299 302 305 300 300 301 300 300 300 299 301 301 301 298 296 296 299 300 294 296 300 297 297 295 294 293 292 290
312 305 301 298 298 300 305 314 318 311 298 299 301 302 305 298 298 301 302 303 302 300 301 300 302 297 298 299 299 301 300 298 294 293 298 296 299 299 297 292 294 294 293 291 289
308 302 298 297 299 299 305 316 312 297 297 298 308 302 302 302 300 302 304 302 301 300 297 298 297 299 298 299 298 298 298 295 294 297 296 296 295 299 290 289 291 292 290 289 289
306 303 297 297 298 300 311 311 306 297 297 299 302 298 298 300 300 304 302 300 300 298 298 297 294 298 296 294 298 297 296 295 294 297 300 298 297 292 289 287 289 289 291 288 288
304 305 295 297 302 300 307 305 296 297 296 297 296 298 299 301 301 299 303 301 299 297 298 298 299 295 297 301 298 300 298 299 293 293 299 300 299 293 289 287 285 287 290 289 288
301 299 295 297 308 306 300 299 297 298 298 296 298 297 296 298 298 300 300 297 298 298 298 297 295 293 299 297 296 295 299 299 296 297 294 297 297 290 289 287 285 288 286 288 289
300 304 297 296 299 304 305 305 303 297 297 296 299 296 297 297 297 298 299 297 297 298 297 296 298 293 295 293 291 294 297 298 297 291 295 297 298 298 292 288 284 285 284 286 289
303 303 301 303 302 303 305 306 304 302 297 296 297 298 298 298 297 295 297 297 297 297 297 296 292 296 296 295 295 295 295 294 294 296 292 295 291 296 295 294 284 285 283 286 285
301 302 298 302 302 303 304 305 305 303 298 299 298 298 298 297 299 299 298 298 298 296 296 295 290 289 288 293 293 292 293 293 293 292 291 294 294 294 292 284 284 283 283 283 285
301 300 304 304 303 304 304 304 304 301 300 301 297 299 297 297 297 297 295 295 296 296 297 292 291 287 290 292 289 289 289 290 291 289 289 290 291 285 286 283 282 282 282 282 282
Wind_Speed
12 12 13 13 13 13 13 12 12 12 11 10 9 7 3 7 11 19 14 13 15 18 19 16 9 8 7 3 5 3 2 4 6 7 4 8 9 6 7 6 8 7 7 11 18
13 12 13 13 13 14 13 13 12 12 11 10 9 8 5 4 4 20 13 16 16 16 15 11 8 9 3 2 3 3 2 7 5 7 7 9 8 8 6 10 12 11 7 14 21
14 13 13 13 14 14 14 13 12 11 11 11 9 6 4 1 3 9 19 17 17 16 13 5 2 4 4 3 4 5 3 6 6 7 8 8 10 8 9 8 10 10 11 13 16
13 14 14 14 14 15 15 15 12 10 10 10 7 4 3 2 2 10 19 16 16 15 14 7 3 1 3 4 4 4 3 3 5 6 4 7 10 9 15 15 10 9 10 9 7
14 14 15 15 16 16 16 13 9 8 9 8 5 3 4 3 5 10 17 14 10 13 15 8 9 5 4 2 2 2 6 6 6 6 7 7 10 11 18 13 8 7 6 7 7
14 14 15 16 17 17 16 10 8 7 7 7 5 4 3 3 4 10 15 12 11 12 12 12 5 3 3 3 3 4 7 11 5 4 6 8 15 7 6 7 7 7 8 8 10
14 15 16 17 18 18 16 8 7 6 6 5 5 6 9 4 4 10 13 7 8 10 8 8 6 3 3 1 3 5 5 10 6 4 3 5 9 7 10 4 7 8 9 7 8
13 15 16 18 19 22 18 6 5 8 5 6 4 3 3 1 2 9 11 3 7 6 4 4 4 1 2 0 4 4 0 5 2 6 5 3 9 12 3 5 9 9 6 6 6
13 15 18 19 19 23 18 4 5 9 4 5 4 4 3 2 3 8 9 6 7 4 4 2 3 2 3 4 2 4 3 6 7 6 4 2 11 9 15 11 7 5 6 4 6
13 16 18 20 21 20 18 7 5 6 6 2 1 2 2 4 6 7 9 5 3 5 3 2 2 0 4 4 1 4 4 4 10 7 14 11 18 18 11 4 4 5 3 5 7
13 14 16 19 21 19 19 5 4 1 9 3 2 2 3 10 2 3 7 5 3 2 3 3 1 2 5 4 3 6 8 10 13 11 8 9 19 21 5 4 4 4 6 7 8
12 14 16 17 18 16 13 6 4 3 5 3 0 1 1 4 3 3 11 0 5 2 4 2 1 6 2 4 6 7 9 8 10 11 13 13 18 17 11 5 2 3 6 8 13
13 13 14 15 13 11 15 7 3 2 4 3 2 1 2 4 3 4 9 0 4 2 2 0 4 2 0 3 5 6 5 5 11 15 8 7 8 5 5 4 4 4 6 10 14
14 13 13 14 3 7 4 6 5 3 4 3 2 2 1 2 2 1 3 3 3 1 3 3 4 1 4 3 4 4 8 12 13 5 3 6 4 7 9 7 7 4 8 13 13
13 13 10 7 3 3 2 4 4 1 4 1 2 0 1 3 4 3 1 4 3 1 2 1 3 2 1 1 3 8 12 15 7 2 4 2 1 4 7 3 5 9 15 13 14
10 10 6 4 2 1 3 3 2 4 5 1 2 1 3 3 2 2 3 3 1 1 5 4 1 2 4 7 3 9 7 10 3 2 3 2 3 5 2 2 8 13 15 15 17
6 8 6 3 2 1 3 2 3 3 2 3 2 1 2 3 1 3 2 1 3 4 1 2 1 2 2 4 4 7 6 4 5 2 5 5 3 9 4 4 9 16 17 16 17
10 8 3 2 2 0 1 4 4 2 3 1 2 4 2 4 2 3 3 2 3 1 2 2 5 3 1 2 1 3 2 3 4 4 7 5 5 6 6 6 8 10 12 15 16
12 7 4 2 3 2 3 2 4 3 1 4 2 2 1 1 1 2 2 3 4 2 3 1 4 3 1 2 4 2 1 2 2 2 2 5 7 3 3 4 9 12 11 13 14
10 7 2 3 4 1 2 4 3 2 1 1 2 1 2 0 2 2 2 1 4 2 2 2 4 1 1 2 4 2 1 2 0 4 5 5 7 5 5 6 8 9 9 12 13
6 2 1 5 6 2 3 4 2 1 1 1 1 2 4 2 1 1 2 2 4 5 3 3 3 4 3 4 6 2 1 2 1 2 3 4 6 6 7 4 7 8 8 9 12
4 0 2 6 2 0 2 2 1 2 1 2 1 2 3 1 3 3 2 1 3 5 3 3 0 4 7 5 5 1 3 3 3 5 4 2 9 5 7 6 5 6 6 9 10
2 2 1 1 3 3 1 1 2 3 3 3 2 2 3 2 3 5 2 4 5 5 2 4 2 4 4 4 2 3 4 4 0 2 6 2 7 3 4 4 4 2 5 7 9
3 1 1 1 1 1 4 3 2 2 3 3 3 1 2 4 5 4 3 3 5 3 1 1 3 6 5 5 2 4 5 7 7 3 4 12 20 24 8 6 6 6 5 6 7
2 3 2 3 4 5 3 4 4 4 3 6 3 7 7 4 3 4 5 4 5 6 4 3 5 3 9 11 10 14 15 11 12 16 5 21 7 24 16 14 6 4 4 8 8
3 3 1 3 2 8 8 5 10 5 8 5 5 7 10 5 6 4 3 5 5 6 6 4 3 1 5 8 6 11 17 15 17 13 14 23 27 21 13 1 4 6 4 7 8
5 2 2 5 3 5 6 7 9 8 7 2 8 6 8 12 6 3 2 2 1 7 8 5 2 1 5 3 7 7 8 8 5 8 7 7 11 3 3 5 6 5 2 5 7
Wind_Direction
7 6 2 1 359 358 356 356 354 354 352 349 346 335 298 25 25 43 38 349 340 347 2 355 21 5 19 52 13 305 291 267 346 23 8 28 2 351 358 285 271 254 257 277 307
3 0 359 359 357 355 351 351 351 348 344 339 336 329 312 297 359 44 1 353 349 359 353 355 6 329 72 41 25 344 279 31 1 6 348 343 329 328 321 303 293 297 327 343 352
5 7 5 3 356 354 348 346 347 346 346 346 345 343 337 85 260 20 353 353 358 353 345 305 298 306 85 33 18 4 329 11 16 26 353 320 308 316 316 274 284 335 331 333 346
4 7 6 2 359 352 346 341 342 347 356 360 2 28 70 289 38 1 348 353 3 356 4 359 319 93 55 18 23 330 59 349 333 346 327 310 308 293 275 273 290 326 324 324 340
7 4 4 2 1 356 349 349 358 0 7 15 16 7 334 111 45 350 355 359 3 7 18 3 33 340 93 335 334 289 7 321 291 268 290 292 283 279 288 282 292 332 308 288 291
7 6 3 1 0 359 357 1 5 5 11 23 38 11 283 74 349 353 354 1 10 4 32 29 27 351 68 54 310 337 298 283 252 255 279 308 300 321 273 303 299 288 316 318 318
4 8 5 1 0 358 355 348 3 0 355 351 337 7 48 80 4 1 358 359 4 15 20 21 341 8 336 10 7 298 298 286 199 177 277 10 285 191 240 285 263 269 286 328 22
4 5 3 2 2 359 351 333 346 354 339 356 15 325 66 324 338 355 357 2 6 11 338 355 350 1 27 218 208 278 157 355 144 189 154 128 279 299 318 296 282 294 329 36 351
356 359 0 1 358 0 359 341 344 357 13 33 6 329 82 350 349 343 357 353 322 295 318 323 310 18 189 321 254 60 269 297 316 218 243 206 274 263 295 285 318 331 34 337 284
345 355 356 357 356 355 353 333 345 19 354 349 358 264 67 352 327 333 350 335 312 282 221 253 277 326 40 14 14 306 309 315 303 305 300 290 271 280 308 5 340 37 250 288 319
334 343 347 353 355 358 2 347 343 183 47 57 23 296 20 334 310 352 345 300 275 242 0 48 349 55 47 36 327 298 292 288 287 306 309 278 291 288 257 158 184 221 342 323 308
319 329 339 346 352 11 39 57 62 311 312 147 129 246 343 339 287 51 348 353 69 58 347 27 174 68 13 276 283 293 285 283 283 323 322 293 291 279 262 187 132 339 299 322 324
302 312 327 336 349 14 58 59 6 351 259 135 82 349 7 350 337 350 345 197 99 54 61 147 58 74 268 317 312 288 259 322 302 333 274 297 283 158 155 149 197 241 314 327 327
280 290 313 332 27 13 56 1 17 48 30 224 158 105 228 283 239 42 356 319 154 102 2 277 91 2 333 281 61 287 2 325 315 29 304 49 281 308 135 191 186 315 329 326 335
276 269 294 335 324 70 333 7 23 72 334 54 95 135 235 283 319 144 321 240 321 140 89 36 345 351 241 258 36 248 321 291 290 91 345 182 77 257 149 210 348 334 329 327 337
274 255 279 339 349 79 8 18 79 28 255 357 332 284 343 250 155 295 216 220 346 247 171 245 86 255 316 313 275 317 304 306 98 155 257 193 79 265 225 296 326 335 326 337 338
252 257 253 268 173 34 21 4 25 192 85 314 306 336 192 292 28 353 324 203 351 26 30 225 192 123 269 303 114 20 360 334 347 253 242 218 306 251 151 32 2 333 330 341 338
244 234 236 211 177 133 59 55 226 277 254 78 278 246 314 1 86 318 270 231 120 66 295 29 320 179 247 59 114 39 65 127 279 309 298 227 237 261 141 49 2 326 331 335 331
228 164 147 163 162 154 85 192 243 213 311 335 228 295 202 155 336 343 270 334 61 97 161 330 262 123 359 36 110 130 256 28 267 237 308 239 275 64 91 349 346 338 337 329 329
182 138 123 161 145 125 96 228 219 239 355 236 245 46 312 14 304 55 216 54 124 106 135 100 305 76 156 147 72 144 113 14 265 306 296 290 287 245 306 318 315 319 328 329 325
152 107 141 141 128 58 231 221 214 188 312 221 305 274 245 267 242 245 253 130 102 136 93 126 121 267 137 196 169 141 232 247 130 205 275 304 264 200 199 234 274 294 329 331 326
155 174 136 155 90 110 223 183 356 175 168 202 273 283 202 118 275 254 261 201 126 145 179 154 272 265 229 114 39 97 233 162 138 270 237 253 269 165 183 211 225 282 336 324 323
113 92 73 72 207 195 178 232 205 189 215 171 202 249 51 217 251 210 205 103 180 183 193 174 230 321 332 7 89 215 207 198 46 21 225 226 264 219 237 247 226 336 307 314 321
123 169 26 22 296 235 171 209 218 277 223 175 194 111 159 230 230 293 245 147 184 171 168 266 255 198 211 211 112 258 207 209 180 200 256 238 276 281 269 322 314 321 300 319 312
157 220 177 184 228 202 183 169 180 230 249 175 202 213 169 237 194 230 228 140 182 201 212 210 233 261 262 269 267 263 262 230 225 226 211 270 265 279 296 302 272 257 313 325 323
161 148 152 191 264 187 199 210 226 198 161 223 218 188 203 223 207 192 196 187 192 170 185 189 263 91 282 251 259 272 258 235 230 240 258 261 275 282 279 16 308 273 32 315 316
189 139 159 166 177 183 198 211 208 157 212 288 198 177 210 236 250 272 285 342 257 170 190 156 207 72 266 340 309 303 244 179 200 188 168 192 235 210 285 260 259 267 91 289 311